Lexington, KY

6:35 AM EDT on June 23, 2017 (GMT -0400)
Blue Grass

Weather History for KLEX - January, 2012

Change the Weather History Date:

Thursday, January 5, 2012

  Actual Average Record
Temperature  
Mean Temperature 38 °F 33 °F  
Max Temperature 50 °F 41 °F 66 °F (1997)
Min Temperature 26 °F 25 °F -5 °F (1924)
Degree Days  
Heating Degree Days 27 32  
Month to date heating degree days 164 160  
Since 1 July heating degree days 1761 1948  
Cooling Degree Days 0 0  
Month to date cooling degree days 0 0  
Year to date cooling degree days 0 0  
Moisture  
Dew Point 24 °F    
Average Humidity 60    
Maximum Humidity 85    
Minimum Humidity 34    
Precipitation  
Precipitation 0.00 in 0.10 in 2.18 in (1950)
Month to date precipitation T 0.53  
Year to date precipitation T 0.53  
Snow  
Snow 0.00 in 0.20 in 2.80 in (1979)
Month to date snowfall T 0.6  
Since 1 July snowfall T 3.4  
Snow Depth 0.00 in    
Sea Level Pressure  
Sea Level Pressure 30.10 in    
Wind  
Wind Speed 9 mph (SW)    
Max Wind Speed 17 mph    
Max Gust Speed 23 mph    
Visibility 10 miles    
Events      
T = Trace of Precipitation, MM = Missing Value Source: NWS Daily Summary

Daily Weather History Graph

Daily Weather History Graph

Search for Another Location

Airport or City:

Trip Planner

Search our weather history database for the weather conditions in past years. The results will help you decide how hot, cold, wet, or windy it might be!

Date:

Astronomy

Jan. 05, 2012 Rise Set
Actual Time 7:54 AM EST 5:32 PM EST
Civil Twilight 7:25 AM EST 6:01 PM EST
Nautical Twilight 6:52 AM EST 6:34 PM EST
Astronomical Twilight 6:20 AM EST 7:06 PM EST
Moon 2:35 PM EST (1/5) 4:39 AM EST (1/5)
Length of Visible Light 10h 36m
Length of Day
9h 37m
Waxing Gibbous, 87% of the Moon is Illuminated
Jan 5
Waxing Gibbous
Jan 9
Full
Jan 16
Last Quarter
Jan 23
New
Jan 30
First Quarter

Hourly Weather History & Observations

Time (EST) Temp. Windchill Dew Point Humidity Pressure Visibility Wind Dir Wind Speed Gust Speed Precip Events Conditions
12:54 AM 34.0 °F 26.6 °F 23.0 °F 64% 30.10 in 10.0 mi WSW 9.2 mph - N/A   Clear
1:54 AM 30.9 °F 24.3 °F 21.9 °F 69% 30.10 in 10.0 mi WSW 6.9 mph - N/A   Clear
2:54 AM 30.0 °F 24.1 °F 23.0 °F 75% 30.12 in 10.0 mi WSW 5.8 mph - N/A   Clear
3:54 AM 30.0 °F 25.2 °F 23.0 °F 75% 30.11 in 10.0 mi WSW 4.6 mph - N/A   Clear
4:54 AM 28.0 °F 20.8 °F 23.0 °F 81% 30.12 in 10.0 mi WSW 6.9 mph - N/A   Clear
5:54 AM 27.0 °F 23.0 °F 21.9 °F 81% 30.14 in 10.0 mi SW 3.5 mph - N/A   Clear
6:54 AM 27.0 °F 23.0 °F 23.0 °F 85% 30.17 in 10.0 mi SW 3.5 mph - N/A   Clear
7:54 AM 26.1 °F 21.9 °F 21.9 °F 84% 30.18 in 10.0 mi SW 3.5 mph - N/A   Clear
8:54 AM 28.9 °F 21.9 °F 25.0 °F 85% 30.19 in 10.0 mi SW 6.9 mph - N/A   Clear
9:54 AM 33.1 °F 26.9 °F 27.0 °F 78% 30.19 in 10.0 mi SSW 6.9 mph - N/A   Clear
10:54 AM 37.0 °F 31.6 °F 27.0 °F 67% 30.18 in 10.0 mi SW 6.9 mph - N/A   Clear
11:54 AM 42.8 °F 37.5 °F 24.8 °F 49% 30.14 in 10.0 mi SSW 9.2 mph - N/A   Clear
12:54 PM 45.0 °F 39.3 °F 24.1 °F 44% 30.12 in 10.0 mi SSW 11.5 mph - N/A   Clear
1:54 PM 46.9 °F - 23.0 °F 39% 30.08 in 10.0 mi SW 10.4 mph - N/A   Clear
2:54 PM 48.9 °F - 21.9 °F 35% 30.05 in 10.0 mi SSW 12.7 mph - N/A   Clear
3:54 PM 48.9 °F - 23.0 °F 36% 30.04 in 10.0 mi SSW 13.8 mph - N/A   Clear
4:54 PM 48.9 °F - 24.1 °F 38% 30.04 in 10.0 mi SSW 10.4 mph - N/A   Clear
5:54 PM 45.0 °F 40.6 °F 24.1 °F 44% 30.04 in 10.0 mi South 8.1 mph - N/A   Clear
6:54 PM 41.0 °F 35.8 °F 24.1 °F 51% 30.05 in 10.0 mi South 8.1 mph - N/A   Clear
7:54 PM 43.0 °F 36.0 °F 25.0 °F 49% 30.04 in 10.0 mi SSW 13.8 mph - N/A   Clear
8:54 PM 42.1 °F 35.7 °F 25.0 °F 51% 30.04 in 10.0 mi SSW 11.5 mph - N/A   Clear
9:54 PM 42.1 °F 35.7 °F 25.0 °F 51% 30.03 in 10.0 mi SSW 11.5 mph - N/A   Clear
10:54 PM 41.0 °F 33.9 °F 25.0 °F 53% 30.02 in 10.0 mi SSW 12.7 mph - N/A   Clear
11:54 PM 41.0 °F 34.3 °F 26.1 °F 55% 30.00 in 10.0 mi SSW 11.5 mph - N/A   Clear